EW7239 Weather Reports


time (UTC)temp
F
wind
direction
speed
knots
gust
knots
rain 1hr
in
rain 24hr
in
rain mn
in
humidity
%
barometer
mb
20260831225818 89 219 7.8 13.9 0.00 0.00 0.00 36 1012.2
20260831225314 89 213 7.8 13.9 0.00 0.00 0.00 37 1012.2
20260831224814 89 234 7.8 13.9 0.00 0.00 0.00 38 1012.2
20260831224545 89 214 8.7 13.0 0.00 0.00 0.00 38 1012.3
20260831223815 89 219 8.7 13.0 0.00 0.00 0.00 38 1012.3
20260831223311 89 226 7.8 13.0 0.00 0.00 0.00 38 1012.3
20260831223041 90 230 7.8 13.0 0.00 0.00 0.00 38 1012.3
20260831222310 91 219 7.0 10.4 0.00 0.00 0.00 38 1012.5
20260831221811 91 245 7.0 14.8 0.00 0.00 0.00 38 1012.6
20260831221305 91 221 6.1 14.8 0.00 0.00 0.00 38 1012.6
20260831220806 91 219 6.1 11.3 0.00 0.00 0.00 37 1012.7
20260831220306 91 226 7.0 12.2 0.00 0.00 0.00 38 1012.8
20260831215806 91 236 6.1 12.2 0.00 0.00 0.00 35 1012.8
20260831214802 91 225 6.1 11.3 0.00 0.00 0.00 35 1012.9
20260831214533 91 227 6.1 11.3 0.00 0.00 0.00 35 1013.0
20260831213802 91 218 6.1 11.3 0.00 0.00 0.00 33 1013.0
20260831213529 92 205 6.1 11.3 0.00 0.00 0.00 33 1013.0
20260831212759 91 245 6.1 11.3 0.00 0.00 0.00 31 1013.0
20260831212258 92 219 5.2 11.3 0.00 0.00 0.00 33 1013.1
20260831211758 91 239 6.1 10.4 0.00 0.00 0.00 32 1013.3
20260831211524 91 213 6.1 9.6 0.00 0.00 0.00 33 1013.2
20260831210754 91 225 6.1 10.4 0.00 0.00 0.00 32 1013.3
20260831210254 91 211 6.1 11.3 0.00 0.00 0.00 32 1013.3
20260831210025 91 242 6.1 11.3 0.00 0.00 0.00 31 1013.3
20260831205249 91 223 6.1 10.4 0.00 0.00 0.00 32 1013.4
20260831205021 91 224 5.2 10.4 0.00 0.00 0.00 34 1013.4
20260831204251 91 263 5.2 10.4 0.00 0.00 0.00 34 1013.4
20260831203750 91 219 6.1 8.7 0.00 0.00 0.00 34 1013.4
20260831203246 90 211 6.1 10.4 0.00 0.00 0.00 37 1013.4
20260831202746 91 219 6.1 10.4 0.00 0.00 0.00 37 1013.5
20260831202246 91 235 5.2 12.2 0.00 0.00 0.00 36 1013.5
20260831201746 91 190 4.3 12.2 0.00 0.00 0.00 34 1013.5
20260831201243 91 252 5.2 10.4 0.00 0.00 0.00 37 1013.5
20260831200513 90 268 3.5 10.4 0.00 0.00 0.00 38 1013.5
20260831195743 89 227 4.3 7.0 0.00 0.00 0.00 41 1013.5
20260831195510 89 215 5.2 8.7 0.00 0.00 0.00 39 1013.6
20260831194738 90 223 4.3 8.7 0.00 0.00 0.00 38 1013.7
20260831194239 89 235 3.5 9.6 0.00 0.00 0.00 40 1013.7
20260831193738 89 250 4.3 9.6 0.00 0.00 0.00 40 1013.7
20260831193234 88 217 4.3 8.7 0.00 0.00 0.00 41 1013.7
20260831192734 88 219 4.3 7.0 0.00 0.00 0.00 43 1013.8
20260831192235 87 223 3.5 7.8 0.00 0.00 0.00 44 1013.9
20260831192006 87 216 2.6 7.8 0.00 0.00 0.00 47 1013.9
20260831191229 87 217 3.5 7.8 0.00 0.00 0.00 47 1014.0
20260831190730 86 212 3.5 8.7 0.00 0.00 0.00 47 1014.1
20260831190502 85 232 4.3 9.6 0.00 0.00 0.00 48 1014.2
20260831185731 85 222 4.3 9.6 0.00 0.00 0.00 50 1014.2
20260831185226 85 219 3.5 7.0 0.00 0.00 0.00 52 1014.2
20260831184957 85 229 4.3 7.0 0.00 0.00 0.00 52 1014.2
20260831184226 85 221 3.5 7.0 0.00 0.00 0.00 52 1014.3
20260831183726 85 229 3.5 6.1 0.00 0.00 0.00 53 1014.3
20260831183454 85 225 2.6 6.1 0.00 0.00 0.00 55 1014.3
20260831182722 83 228 2.6 6.1 0.00 0.00 0.00 58 1014.3
20260831182222 83 225 3.5 7.0 0.00 0.00 0.00 59 1014.3
20260831181722 83 228 3.5 7.0 0.00 0.00 0.00 59 1014.3
20260831181217 82 213 4.3 6.1 0.00 0.00 0.00 61 1014.3
20260831180718 82 199 3.5 6.1 0.00 0.00 0.00 60 1014.4
20260831180218 81 206 3.5 6.1 0.00 0.00 0.00 62 1014.4
20260831175718 81 208 3.5 7.0 0.00 0.00 0.00 62 1014.4
20260831175214 81 207 3.5 7.0 0.00 0.00 0.00 63 1014.4
20260831174715 81 212 3.5 7.0 0.00 0.00 0.00 63 1014.5
20260831174214 81 226 2.6 6.1 0.00 0.00 0.00 64 1014.5
20260831173715 80 227 2.6 5.2 0.00 0.00 0.00 65 1014.5
20260831173210 80 227 2.6 6.1 0.00 0.00 0.00 67 1014.4
20260831172711 79 228 3.5 6.1 0.00 0.00 0.00 67 1014.4
20260831172210 79 229 2.6 5.2 0.00 0.00 0.00 67 1014.4
20260831171711 78 226 2.6 5.2 0.00 0.00 0.00 70 1014.4
20260831171211 78 226 2.6 5.2 0.00 0.00 0.00 71 1014.4
20260831170706 78 226 2.6 5.2 0.00 0.00 0.00 71 1014.4
20260831170206 77 235 2.6 5.2 0.00 0.00 0.00 71 1014.3
20260831165706 77 236 1.7 5.2 0.00 0.00 0.00 72 1014.3
20260831165202 77 237 2.6 5.2 0.00 0.00 0.00 73 1014.2
20260831164936 76 237 2.6 5.2 0.00 0.00 0.00 71 1014.2
20260831164202 77 241 1.7 4.3 0.00 0.00 0.00 73 1014.2
20260831163159 76 246 2.6 5.2 0.00 0.00 0.00 73 1014.1
20260831162658 76 247 2.6 5.2 0.00 0.00 0.00 74 1014.1
20260831162158 76 249 2.6 5.2 0.00 0.00 0.00 74 1014.2
20260831161929 75 250 1.7 5.2 0.00 0.00 0.00 76 1014.1
20260831161424 75 250 1.7 4.3 0.00 0.00 0.00 77 1014.1
20260831160654 74 250 1.7 4.3 0.00 0.00 0.00 78 1014.2
20260831160155 74 250 1.7 4.3 0.00 0.00 0.00 78 1014.2
20260831155655 74 250 1.7 3.5 0.00 0.00 0.00 80 1014.2
20260831155152 74 250 0.9 3.5 0.00 0.00 0.00 80 1014.2
20260831154651 73 250 1.7 3.5 0.00 0.00 0.00 80 1014.1
20260831154151 73 250 1.7 3.5 0.00 0.00 0.00 81 1014.2
20260831153651 73 250 0.9 3.5 0.00 0.00 0.00 81 1014.2
20260831153146 73 250 0.9 3.5 0.00 0.00 0.00 82 1014.2
20260831152646 73 250 0.9 2.6 0.00 0.00 0.00 82 1014.2
20260831152146 72 250 0.0 2.6 0.00 0.00 0.00 83 1014.2
20260831151646 72 250 0.0 1.7 0.00 0.00 0.00 83 1014.2
20260831151141 72 250 0.0 3.5 0.00 0.00 0.00 84 1014.1
20260831150655 71 250 0.9 3.5 0.00 0.00 0.00 83 1014.1
20260831150142 71 250 0.0 2.6 0.00 0.00 0.00 84 1014.1
20260831145645 71 250 0.0 1.7 0.00 0.00 0.00 84 1014.1
20260831145137 71 250 0.0 2.6 0.00 0.00 0.00 83 1014.1
20260831144638 71 250 0.0 2.6 0.00 0.00 0.00 83 1014.1
20260831144138 70 250 0.0 1.7 0.00 0.00 0.00 83 1014.0
20260831143638 70 250 0.9 2.6 0.00 0.00 0.00 83 1014.0
20260831142635 70 250 0.0 1.7 0.00 0.00 0.00 83 1013.9
20260831142134 69 250 0.0 0.0 0.00 0.00 0.00 83 1013.9
20260831141635 69 250 0.0 0.0 0.00 0.00 0.00 83 1013.9
20260831141130 69 250 0.0 2.6 0.00 0.00 0.00 83 1013.8
20260831140630 69 250 0.9 2.6 0.00 0.00 0.00 84 1013.7
20260831140131 69 250 0.9 2.6 0.00 0.00 0.00 84 1013.7
20260831135630 69 250 1.7 3.5 0.00 0.00 0.00 84 1013.6
20260831135126 69 250 1.7 3.5 0.00 0.00 0.00 84 1013.5
20260831134626 69 250 1.7 3.5 0.00 0.00 0.00 83 1013.4
20260831134127 69 250 1.7 3.5 0.00 0.00 0.00 84 1013.4
20260831133858 69 250 2.6 3.5 0.00 0.00 0.00 84 1013.3
20260831133121 69 250 1.7 3.5 0.00 0.00 0.00 84 1013.2
20260831132623 69 250 0.9 3.5 0.00 0.00 0.00 84 1013.2
20260831132122 69 250 0.0 2.6 0.00 0.00 0.00 84 1013.2
20260831131622 69 250 0.0 0.0 0.00 0.00 0.00 84 1013.2
20260831131117 68 250 0.0 0.0 0.00 0.00 0.00 84 1013.2
20260831130849 68 250 0.0 0.0 0.00 0.00 0.00 84 1013.2
20260831130350 69 250 0.0 0.0 0.00 0.00 0.00 84 1013.2
20260831125114 69 250 0.0 0.0 0.00 0.00 0.00 84 1013.1
20260831124614 69 250 0.0 0.0 0.00 0.00 0.00 84 1013.1
20260831124345 69 250 0.0 0.0 0.00 0.00 0.00 84 1013.1
20260831123845 69 250 0.0 0.9 0.00 0.00 0.00 84 1013.0
20260831123341 69 250 0.0 0.9 0.00 0.00 0.00 84 1012.9
20260831122610 69 250 0.0 0.0 0.00 0.00 0.00 84 1012.9
20260831122110 69 250 0.0 0.0 0.00 0.00 0.00 84 1013.0
20260831121842 69 250 0.0 0.0 0.00 0.00 0.00 84 1012.9
20260831121106 69 250 0.0 0.0 0.00 0.00 0.00 84 1013.0
20260831120608 69 250 0.0 0.0 0.00 0.00 0.00 84 1013.0
20260831120340 69 250 0.0 0.0 0.00 0.00 0.00 84 1013.0
20260831115102 69 250 0.0 0.0 0.00 0.00 0.00 84 1013.1
20260831114834 69 250 0.0 0.0 0.00 0.00 0.00 84 1013.1
20260831114102 69 250 0.0 0.0 0.00 0.00 0.00 84 1013.1
20260831113603 69 250 0.0 2.6 0.00 0.00 0.00 84 1013.2
20260831113058 69 250 0.0 2.6 0.00 0.00 0.00 84 1013.1
20260831112558 69 250 0.0 0.0 0.00 0.00 0.00 84 1013.2
20260831112058 69 250 0.0 0.0 0.00 0.00 0.00 84 1013.2
20260831111558 70 250 0.0 0.0 0.00 0.00 0.00 84 1013.1
20260831111325 70 250 0.0 1.7 0.00 0.00 0.00 84 1013.2
20260831110554 70 250 0.9 2.6 0.00 0.00 0.00 83 1013.1
20260831110107 70 250 0.9 2.6 0.00 0.00 0.00 83 1013.1
20260831105554 70 250 0.9 1.7 0.00 0.00 0.00 83 1013.1
20260831105051 70 250 0.9 1.7 0.00 0.00 0.00 83 1013.1
20260831104550 70 250 0.9 2.6 0.00 0.00 0.00 83 1013.2
20260831104050 70 250 0.9 2.6 0.00 0.00 0.00 83 1013.2
20260831103821 70 250 0.9 2.6 0.00 0.00 0.00 83 1013.1
20260831103046 70 250 0.9 2.6 0.00 0.00 0.00 83 1013.1
20260831102546 70 250 0.9 2.6 0.00 0.00 0.00 83 1013.1
20260831102046 70 250 0.9 2.6 0.00 0.00 0.00 82 1013.1
20260831101547 70 250 0.9 2.6 0.00 0.00 0.00 82 1013.1
20260831101042 70 250 0.9 2.6 0.00 0.00 0.00 82 1013.0
20260831100542 70 250 0.9 2.6 0.00 0.00 0.00 82 1013.0
20260831100055 70 250 0.9 2.6 0.00 0.00 0.00 82 1013.0
20260831095542 70 250 0.9 2.6 0.00 0.00 0.00 82 1013.0
20260831095309 70 250 0.9 2.6 0.00 0.00 0.00 82 1012.9
20260831094538 71 250 0.9 1.7 0.00 0.00 0.00 82 1012.9
20260831094039 71 250 0.9 1.7 0.00 0.00 0.00 82 1013.0
20260831093034 71 250 0.9 1.7 0.00 0.00 0.00 82 1013.0
20260831092534 71 250 0.9 2.6 0.00 0.00 0.00 82 1013.0
20260831092035 71 250 0.9 2.6 0.00 0.00 0.00 82 1013.0
20260831091534 71 250 0.9 2.6 0.00 0.00 0.00 82 1013.0
20260831091041 71 250 0.9 2.6 0.00 0.00 0.00 81 1012.9
20260831090530 71 250 0.0 3.5 0.00 0.00 0.00 81 1012.9
20260831090030 71 250 0.9 3.5 0.00 0.00 0.00 81 1012.9
20260831085532 71 250 0.9 3.5 0.00 0.00 0.00 81 1012.8
20260831085255 71 250 0.9 4.3 0.00 0.00 0.00 81 1012.9
20260831084526 71 250 1.7 4.3 0.00 0.00 0.00 80 1012.9
20260831084026 71 250 0.9 3.5 0.00 0.00 0.00 80 1013.0
20260831083526 71 250 0.9 2.6 0.00 0.00 0.00 80 1013.0
20260831083025 71 250 0.9 2.6 0.00 0.00 0.00 79 1013.0
20260831082755 72 250 0.9 3.5 0.00 0.00 0.00 79 1013.1
20260831082025 72 250 1.7 3.5 0.00 0.00 0.00 79 1013.0
20260831081525 72 250 1.7 4.3 0.00 0.00 0.00 79 1013.1
20260831081255 72 250 1.7 4.3 0.00 0.00 0.00 79 1013.2
20260831080525 72 250 1.7 4.3 0.00 0.00 0.00 78 1013.2
20260831075526 72 250 1.7 4.3 0.00 0.00 0.00 78 1013.3
20260831075024 72 250 1.7 3.5 0.00 0.00 0.00 78 1013.3
20260831074526 72 250 1.7 3.5 0.00 0.00 0.00 78 1013.2
20260831074255 72 250 0.9 3.5 0.00 0.00 0.00 77 1013.3
20260831073526 72 250 0.9 3.5 0.00 0.00 0.00 77 1013.3
20260831073024 72 250 0.9 2.6 0.00 0.00 0.00 77 1013.2
20260831072525 72 250 0.9 2.6 0.00 0.00 0.00 76 1013.1
20260831072025 73 250 1.7 3.5 0.00 0.00 0.00 76 1013.1
20260831071525 73 250 0.9 3.5 0.00 0.00 0.00 76 1013.2
20260831071024 73 250 1.7 4.3 0.00 0.00 0.00 76 1013.1
20260831070757 73 250 0.9 4.3 0.00 0.00 0.00 76 1013.0
20260831070027 73 250 0.9 3.5 0.00 0.00 0.00 76 1013.0
20260831065756 73 250 0.9 2.6 0.00 0.00 0.00 76 1012.9
20260831065039 73 250 1.7 2.6 0.00 0.00 0.00 75 1012.9
20260831064527 73 250 1.7 3.5 0.00 0.00 0.00 74 1012.9
20260831064026 73 250 1.7 3.5 0.00 0.00 0.00 74 1012.9
20260831063524 74 250 1.7 3.5 0.00 0.00 0.00 74 1012.9
20260831063256 74 250 1.7 2.6 0.00 0.00 0.00 73 1012.9
20260831062755 74 250 0.9 2.6 0.00 0.00 0.00 72 1012.8
20260831062025 74 250 0.9 3.5 0.00 0.00 0.00 72 1012.9
20260831061522 74 250 1.7 5.2 0.00 0.00 0.00 72 1012.9
20260831061019 74 250 2.6 7.0 0.00 0.00 0.00 72 1012.7
20260831060518 74 250 2.6 7.0 0.00 0.00 0.00 72 1012.8
20260831060248 74 252 2.6 7.0 0.00 0.00 0.00 72 1012.9
20260831055517 74 251 2.6 7.0 0.00 0.00 0.00 72 1012.9
20260831055016 74 248 2.6 6.1 0.00 0.00 0.00 73 1012.8
20260831054515 74 248 2.6 6.1 0.00 0.00 0.00 73 1012.8
20260831054015 74 244 2.6 5.2 0.00 0.00 0.00 73 1012.9
20260831053516 75 244 1.7 5.2 0.00 0.00 0.00 72 1012.9
20260831053011 75 245 2.6 5.2 0.00 0.00 0.00 72 1012.9
20260831052751 75 245 2.6 6.1 0.00 0.00 0.00 72 1012.9
20260831052008 75 244 2.6 6.1 0.00 0.00 0.00 72 1012.9
20260831051508 75 243 3.5 7.0 0.00 0.00 0.00 72 1012.8
20260831051007 75 245 3.5 7.0 0.00 0.00 0.00 72 1012.8
20260831050509 75 242 2.6 7.8 0.00 0.00 0.00 71 1012.7
20260831050008 75 234 2.6 7.8 0.00 0.00 0.00 71 1012.8
20260831045508 75 249 2.6 6.1 0.00 0.00 0.00 70 1012.8
20260831045008 76 249 3.5 7.8 0.00 0.00 0.00 70 1012.7
20260831044506 76 252 3.5 7.8 0.00 0.00 0.00 70 1012.7
20260831044004 75 227 2.6 6.1 0.00 0.00 0.00 70 1012.6
20260831043504 75 225 2.6 5.2 0.00 0.00 0.00 70 1012.6
20260831043002 76 225 1.7 4.3 0.00 0.00 0.00 69 1012.5
20260831042500 76 225 2.6 5.2 0.00 0.00 0.00 69 1012.5
20260831042000 76 225 2.6 5.2 0.00 0.00 0.00 68 1012.5
20260831041948 76 225 3.5 7.8 0.00 0.00 0.00 68 1012.2
20260831041903 77 225 4.3 8.7 0.00 0.00 0.00 68 1012.1
20260831040727 77 214 4.3 8.7 0.00 0.00 0.00 67 1012.0
20260831035953 77 223 3.5 7.0 0.00 0.00 0.00 67 1012.0
20260831035451 77 225 3.5 7.8 0.00 0.00 0.00 67 1011.9
20260831034952 77 225 4.3 7.8 0.00 0.00 0.00 67 1011.9
20260831034451 78 219 3.5 7.0 0.00 0.00 0.00 67 1011.8
20260831033953 78 221 3.5 7.0 0.00 0.00 0.00 66 1011.6
20260831033450 78 216 4.3 9.6 0.00 0.00 0.00 66 1011.4
20260831032951 79 219 6.1 9.6 0.00 0.00 0.00 65 1011.3
20260831032448 79 221 6.1 10.4 0.00 0.00 0.00 65 1011.2
20260831031947 79 233 5.2 10.4 0.00 0.00 0.00 64 1011.2
20260831031448 79 215 5.2 8.7 0.00 0.00 0.00 64 1011.1
20260831030946 80 215 5.2 9.6 0.00 0.00 0.00 62 1011.0
20260831025944 80 217 6.1 9.6 0.00 0.00 0.00 60 1010.7
20260831025440 80 218 6.1 9.6 0.00 0.00 0.00 60 1010.7
20260831024938 81 230 6.1 10.4 0.00 0.00 0.00 59 1010.7
20260831024438 81 214 5.2 10.4 0.00 0.00 0.00 59 1010.7
20260831023939 82 223 6.1 11.3 0.00 0.00 0.00 57 1010.5
20260831023709 82 227 6.1 11.3 0.00 0.00 0.00 56 1010.5
20260831022933 82 205 7.0 12.2 0.00 0.00 0.00 55 1010.4
20260831022432 83 225 7.8 13.9 0.00 0.00 0.00 55 1010.4
20260831021933 83 221 7.0 13.9 0.00 0.00 0.00 54 1010.3
20260831021432 83 220 7.0 12.2 0.00 0.00 0.00 54 1010.3
20260831020930 84 219 7.8 13.9 0.00 0.00 0.00 53 1010.3
20260831020701 84 216 7.0 13.9 0.00 0.00 0.00 52 1010.3
20260831015929 85 221 7.0 13.0 0.00 0.00 0.00 51 1010.3
20260831015659 85 223 7.8 13.9 0.00 0.00 0.00 51 1010.3
20260831015156 85 221 7.8 13.9 0.00 0.00 0.00 50 1010.3
20260831014427 86 217 7.0 12.2 0.00 0.00 0.00 50 1010.3
20260831013919 86 211 7.0 12.2 0.00 0.00 0.00 49 1010.4
20260831013418 86 215 7.0 12.2 0.00 0.00 0.00 49 1010.4
20260831012918 86 219 7.8 14.8 0.00 0.00 0.00 49 1010.4
20260831012414 87 220 8.7 14.8 0.00 0.00 0.00 48 1010.4
20260831011914 87 221 8.7 12.2 0.00 0.00 0.00 48 1010.3
20260831011414 88 220 8.7 13.9 0.00 0.00 0.00 47 1010.3
20260831010911 88 216 8.7 13.9 0.00 0.00 0.00 47 1010.2
20260831010642 88 217 8.7 14.8 0.00 0.00 0.00 46 1010.2
20260831005909 89 220 8.7 14.8 0.00 0.00 0.00 46 1010.2
20260831005409 89 227 7.8 13.9 0.00 0.00 0.00 46 1010.3
20260831005142 89 232 8.7 13.9 0.00 0.00 0.00 46 1010.3
20260831004410 89 223 8.7 14.8 0.00 0.00 0.00 46 1010.2
20260831003910 89 197 7.8 14.8 0.00 0.00 0.00 46 1010.2
20260831003411 90 225 7.8 13.0 0.00 0.00 0.00 45 1010.2
20260831002910 90 216 8.7 16.5 0.00 0.00 0.00 44 1010.2
20260831002411 90 234 8.7 16.5 0.00 0.00 0.00 45 1010.3
20260831001909 91 231 7.8 14.8 0.00 0.00 0.00 45 1010.2
20260831001409 90 216 7.8 15.6 0.00 0.00 0.00 45 1010.2
20260831000909 90 226 8.7 15.6 0.00 0.00 0.00 45 1010.2
20260831000410 90 264 8.7 13.9 0.00 0.00 0.00 46 1010.2
20260830235909 90 228 9.6 13.9 0.00 0.00 0.00 46 1010.3
20260830235407 91 223 8.7 13.9 0.00 0.00 0.00 46 1010.3
20260830234907 91 221 7.8 13.9 0.00 0.00 0.00 45 1010.2
20260830234408 92 234 7.0 12.2 0.00 0.00 0.00 44 1010.2
20260830233909 92 242 7.8 15.6 0.00 0.00 0.00 44 1010.3
20260830233408 92 220 7.8 15.6 0.00 0.00 0.00 44 1010.3
20260830233140 92 214 7.8 14.8 0.00 0.00 0.00 42 1010.3
20260830232638 92 222 8.7 13.9 0.00 0.00 0.00 43 1010.3
20260830231907 92 217 7.8 13.9 0.00 0.00 0.00 43 1010.4
20260830230907 92 233 7.8 13.9 0.00 0.00 0.00 44 1010.3
20260830230408 93 227 7.8 13.9 0.00 0.00 0.00 43 1010.4